CYNA

Natashquan Airport

ICAO Code CYNA
IATA Code YNA
Name Natashquan Airport
Location Natashquan, Quebec, CA
Elevation 39 Feet / 11.9 Meters
Latitude 50.19000000
Longitude -61.78888889
METAR CYNA 060900Z AUTO 05014G20KT 9SM BKN045 OVC071 11/09 A2979 RMK SLP089
Extra information Display Charts
Runway Length Width Surface Elevation
14 4495 ft 100 ft ASP 35 ft
32 4495 ft 100 ft ASP 39 ft